Tracking 19246 objects as of 21-Sep-2018
HD Live streaming from Space Station
objects crossing your sky now

FENGYUN 1C DEB

Track FENGYUN 1C DEB now!
10-day predictions


NORAD ID: 35139
Int'l Code: 1999-025DLT
Perigee: 790.1 km
Apogee: 892.7 km
Inclination: 98.8 °
Period: 101.6 minutes
Semi major axis: 7212 km
RCS: 0.0145 m2 (small)
Launch date: May 10, 1999
Source: People's Republic of China (PRC)
Launch site: Taiyaun Space Center, China (TSC)

Note: This is SATELLITE DEBRIS
aabbcc
Your satellite tracking list
Your tracking list is empty




NASA's NSSDC Master Catalog

Two Line Element Set (TLE):
1 35139U 99025DLT 18260.87950758 +.00000085 +00000-0 +62301-4 0  9991
2 35139 098.7859 291.6713 0071151 343.9051 015.9863 14.17375507266879
Source of the keplerian elements: AFSPC